TimeCDT,TemperatureF,Dew PointF,Humidity,Sea Level PressureIn,VisibilityMPH,Wind Direction,Wind SpeedMPH,Gust SpeedMPH,PrecipitationIn,Events,Conditions,WindDirDegrees,DateUTC
12:15 AM,66.9,60.4,80,30.04,10.0,North,4.6,-,N/A,,Clear,10,2013-07-12 05:15:00
12:35 AM,66.9,60.4,80,30.04,10.0,North,3.5,-,N/A,,Clear,10,2013-07-12 05:35:00
12:55 AM,66.2,60.3,81,30.05,10.0,North,5.8,-,N/A,,Clear,10,2013-07-12 05:55:00
1:15 AM,65.8,60.3,82,30.05,10.0,North,4.6,-,N/A,,Clear,10,2013-07-12 06:15:00
1:35 AM,65.8,59.9,81,30.04,10.0,North,5.8,-,N/A,,Clear,10,2013-07-12 06:35:00
1:55 AM,65.3,59.7,82,30.05,10.0,North,4.6,-,N/A,,Clear,10,2013-07-12 06:55:00
2:15 AM,64.9,59.5,83,30.05,10.0,NNE,4.6,-,N/A,,Clear,20,2013-07-12 07:15:00
2:35 AM,64.2,59.2,84,30.05,10.0,North,4.6,-,N/A,,Clear,360,2013-07-12 07:35:00
2:55 AM,64.8,59.9,84,30.05,10.0,North,5.8,-,N/A,,Clear,360,2013-07-12 07:55:00
3:15 AM,64.0,59.2,84,30.05,10.0,North,4.6,-,N/A,,Clear,10,2013-07-12 08:15:00
3:35 AM,64.0,59.4,85,30.05,10.0,North,4.6,-,N/A,,Clear,10,2013-07-12 08:35:00
3:55 AM,63.7,59.4,86,30.05,10.0,NNE,6.9,-,N/A,,Clear,20,2013-07-12 08:55:00
4:15 AM,63.9,59.0,84,30.05,10.0,North,5.8,-,N/A,,Clear,10,2013-07-12 09:15:00
4:35 AM,64.0,59.0,84,30.06,10.0,North,5.8,-,N/A,,Clear,10,2013-07-12 09:35:00
4:55 AM,63.3,58.8,85,30.07,10.0,North,6.9,-,N/A,,Clear,10,2013-07-12 09:55:00
5:15 AM,63.1,59.0,86,30.07,10.0,North,6.9,-,N/A,,Clear,10,2013-07-12 10:15:00
5:35 AM,63.3,59.0,86,30.08,10.0,North,8.1,-,N/A,,Clear,10,2013-07-12 10:35:00
5:55 AM,63.5,59.0,85,30.08,10.0,North,6.9,-,N/A,,Clear,10,2013-07-12 10:55:00
6:15 AM,63.1,59.5,88,30.08,10.0,NE,4.6,-,N/A,,Clear,40,2013-07-12 11:15:00
6:35 AM,64.0,59.5,85,30.09,10.0,NE,5.8,-,N/A,,Clear,40,2013-07-12 11:35:00
6:55 AM,65.1,60.4,85,30.09,10.0,NNE,4.6,-,N/A,,Clear,30,2013-07-12 11:55:00
7:15 AM,66.4,61.0,83,30.09,10.0,NE,3.5,-,N/A,,Clear,40,2013-07-12 12:15:00
7:35 AM,68.0,61.5,80,30.10,10.0,NE,6.9,-,N/A,,Clear,40,2013-07-12 12:35:00
7:55 AM,69.6,61.9,76,30.10,5.0,NE,5.8,-,N/A,,Haze,40,2013-07-12 12:55:00
8:15 AM,71.6,62.1,72,30.10,10.0,NNE,4.6,-,N/A,,Clear,30,2013-07-12 13:15:00
8:35 AM,73.4,61.0,65,30.11,10.0,NE,5.8,-,N/A,,Clear,40,2013-07-12 13:35:00
8:55 AM,75.0,60.8,61,30.11,10.0,NE,5.8,-,N/A,,Clear,40,2013-07-12 13:55:00
9:15 AM,76.5,60.1,57,30.11,10.0,NE,8.1,-,N/A,,Clear,50,2013-07-12 14:15:00
9:35 AM,77.7,60.4,55,30.10,10.0,ENE,6.9,-,N/A,,Clear,60,2013-07-12 14:35:00
9:55 AM,79.0,60.6,53,30.10,10.0,ENE,6.9,-,N/A,,Clear,60,2013-07-12 14:55:00
10:15 AM,79.7,59.4,50,30.10,10.0,NNE,9.2,-,N/A,,Clear,30,2013-07-12 15:15:00
10:35 AM,80.4,57.0,45,30.09,10.0,ENE,11.5,17.3,N/A,,Clear,60,2013-07-12 15:35:00
10:55 AM,81.5,58.3,45,30.09,10.0,ENE,8.1,-,N/A,,Clear,70,2013-07-12 15:55:00
11:15 AM,81.7,57.2,43,30.09,10.0,NE,9.2,-,N/A,,Clear,40,2013-07-12 16:15:00
11:35 AM,82.0,56.5,41,30.09,10.0,NNE,10.4,-,N/A,,Clear,20,2013-07-12 16:35:00
11:55 AM,82.2,56.5,41,30.09,10.0,NE,10.4,-,N/A,,Clear,40,2013-07-12 16:55:00
12:15 PM,82.8,56.5,40,30.08,10.0,NE,9.2,-,N/A,,Clear,40,2013-07-12 17:15:00
12:35 PM,84.0,57.9,41,30.09,10.0,NNE,10.4,-,N/A,,Scattered Clouds,30,2013-07-12 17:35:00
12:55 PM,83.7,56.8,40,30.08,10.0,North,9.2,-,N/A,,Scattered Clouds,10,2013-07-12 17:55:00
1:15 PM,83.8,58.1,41,30.08,10.0,NE,11.5,-,N/A,,Clear,40,2013-07-12 18:15:00
1:35 PM,84.2,57.0,39,30.07,10.0,NNE,12.7,-,N/A,,Clear,30,2013-07-12 18:35:00
1:55 PM,84.6,56.3,38,30.07,10.0,NE,11.5,-,N/A,,Clear,50,2013-07-12 18:55:00
2:15 PM,84.4,54.7,36,30.07,10.0,NNE,6.9,-,N/A,,Clear,30,2013-07-12 19:15:00
2:35 PM,85.1,55.4,36,30.06,10.0,NE,9.2,-,N/A,,Clear,50,2013-07-12 19:35:00
2:55 PM,85.3,53.4,33,30.06,10.0,NE,6.9,11.5,N/A,,Clear,40,2013-07-12 19:55:00
3:15 PM,85.1,54.3,35,30.06,10.0,NNE,4.6,-,N/A,,Clear,30,2013-07-12 20:15:00
3:35 PM,85.5,54.7,35,30.06,10.0,NNE,8.1,-,N/A,,Clear,20,2013-07-12 20:35:00
3:55 PM,85.5,54.3,34,30.05,10.0,NE,5.8,-,N/A,,Clear,40,2013-07-12 20:55:00
4:15 PM,85.5,54.3,34,30.04,10.0,NNE,6.9,-,N/A,,Clear,20,2013-07-12 21:15:00
4:35 PM,85.6,53.4,33,30.04,10.0,NE,11.5,-,N/A,,Clear,40,2013-07-12 21:35:00
4:55 PM,85.8,53.1,32,30.03,10.0,NNE,6.9,-,N/A,,Clear,30,2013-07-12 21:55:00
5:15 PM,86.0,54.1,33,30.04,10.0,North,5.8,-,N/A,,Clear,10,2013-07-12 22:15:00
5:35 PM,85.1,56.5,38,30.03,10.0,NE,9.2,-,N/A,,Clear,50,2013-07-12 22:35:00
5:55 PM,84.7,56.1,37,30.03,10.0,NNE,6.9,-,N/A,,Clear,20,2013-07-12 22:55:00
6:15 PM,84.4,57.0,39,30.02,10.0,NNE,5.8,-,N/A,,Clear,30,2013-07-12 23:15:00
6:35 PM,83.3,59.4,44,30.02,10.0,NNE,3.5,-,N/A,,Clear,30,2013-07-12 23:35:00
6:55 PM,83.3,56.1,39,30.02,10.0,North,6.9,-,N/A,,Clear,360,2013-07-12 23:55:00
7:15 PM,82.9,56.7,41,30.02,10.0,North,5.8,-,N/A,,Clear,360,2013-07-13 00:15:00
7:35 PM,80.1,61.2,52,30.02,10.0,North,4.6,-,N/A,,Clear,10,2013-07-13 00:35:00
7:55 PM,78.8,60.4,53,30.02,10.0,North,4.6,-,N/A,,Clear,360,2013-07-13 00:55:00
8:15 PM,76.1,62.6,63,30.02,10.0,NNE,3.5,-,N/A,,Clear,30,2013-07-13 01:15:00
8:35 PM,73.6,64.6,73,30.02,10.0,NNE,3.5,-,N/A,,Clear,30,2013-07-13 01:35:00
8:55 PM,73.2,64.0,73,30.04,10.0,North,3.5,-,N/A,,Clear,10,2013-07-13 01:55:00
9:15 PM,72.5,62.8,71,30.04,10.0,North,4.6,-,N/A,,Clear,10,2013-07-13 02:15:00
9:35 PM,72.0,63.1,74,30.04,10.0,North,3.5,-,N/A,,Clear,10,2013-07-13 02:35:00
9:55 PM,71.8,62.2,72,30.05,10.0,North,4.6,-,N/A,,Clear,10,2013-07-13 02:55:00
10:15 PM,70.5,63.1,77,30.05,10.0,NNE,4.6,-,N/A,,Clear,20,2013-07-13 03:15:00
10:35 PM,68.4,62.8,82,30.06,10.0,NNE,4.6,-,N/A,,Clear,30,2013-07-13 03:35:00
10:55 PM,67.8,61.7,81,30.05,10.0,NNE,4.6,-,N/A,,Clear,20,2013-07-13 03:55:00
11:15 PM,67.3,62.8,85,30.05,10.0,North,4.6,-,N/A,,Clear,10,2013-07-13 04:15:00
11:35 PM,67.6,61.7,81,30.05,10.0,North,3.5,-,N/A,,Clear,10,2013-07-13 04:35:00
11:55 PM,67.1,62.1,84,30.06,10.0,North,3.5,-,N/A,,Clear,10,2013-07-13 04:55:00